星链-35583(STARLINK-35583)

导读

STARLINK-35583是美国太空探索技术公司 SpaceX 星链星座中的一颗卫星,于2025年11月22日发射升空,属于星链互联网卫星项目。星链项目旨在搭建全球卫星互联网通信网络,为全球多个地区提供高速低延迟的互联网接入服务,该卫星加入星座后将进一步扩展星链网络的全球覆盖与服务能力。

Basic Information
目录编号:
66611
目录名称:
STARLINK-35583
国际标识:
2025-270Z
轨道中心:
EARTH
卫星名称:
星链-35583
卫星全名:
星链-35583(STARLINK-35583)
卫星状态:
在轨 (已飞行203 天)
发射日期:
2025-11-22 UTC
国别 :
美国 (US)
星等 :
--
Orbit Information
数据来源 国际轨道数据 AOE轨道数据
星历时间 2026-06-11T19:56:25+0800
1天前
查看轨道信息
2026-06-09T08:00:00+0800
4天前
查看轨道信息
半长轴 6861.151km 6861.176km
偏心率 0.0005653 0.0002664
轨道倾角 43.007° 43.005°
近地点辐角 277.259° 288.202°
升交点赤经 246.313° 260.416°
平近点角 82.762° 1.237°
近地点 479.135km 481.211km
远地点 486.893km 484.867km
周期 94.266分钟 94.267分钟
每日圈数 15.275919 15.275837
Detailed Information
固有亮度:
5
最大亮度:
2.5
卫星平台:
Starlink V1.0
覆盖范围:
全球
运营商:
太空探索技术公司
运营商所在国:
美国
制造商(研发单位):
太空探索技术公司
制造商所在国:
美国
使用方式:
暂无
Satellite Introduction
Starlink 计划是 SpaceX 推出的全球卫星互联网项目,通过发射低轨道卫星,为全球尤其是偏远地区提供高速、低延迟的互联网服务。自 2019 年起,Starlink 已部署数千颗卫星,旨在缩小全球数字鸿沟,推动互联网普及。该项目还为军事、航空等行业提供通信支持,带来广泛经济效益。
2D Orbit Map
3D Orbit Map
Orbit Altitude Analysis Chart
Orbit Inclination Analysis Chart
Orbit Comprehensive Analysis Chart
View Comprehensive Chart